Wetterdaten: Montag, 15.06.2015
Datum Zeit Auen-Temp. Temp gefhlt Luftfeuchte Luftdruck Regen Wind Richtung Richtung Taupunkt Windben
15.06.2015 00:00 14,2 C 14,0 C 87 % 1013,1 hPa 0,0 mm 4,1 km/h (1 Bft) S-SW 202 12,1 C 12,4 km/h (3 Bft)
15.06.2015 00:05 14,1 C 13,9 C 87 % 1013,1 hPa 0,0 mm 4,7 km/h (1 Bft) NW 315 12,0 C 4,1 km/h (1 Bft)
15.06.2015 00:10 14,1 C 13,9 C 87 % 1013,1 hPa 0,0 mm 6,0 km/h (2 Bft) W-SW 247 12,0 C 19,9 km/h (4 Bft)
15.06.2015 00:15 14,1 C 13,9 C 87 % 1013,5 hPa 0,0 mm 6,7 km/h (2 Bft) SW 225 12,0 C 5,7 km/h (1 Bft)
15.06.2015 00:20 14,0 C 13,8 C 87 % 1013,5 hPa 0,0 mm 2,6 km/h (1 Bft) SO 135 11,9 C 0,0 km/h (0 Bft)
15.06.2015 00:25 13,9 C 13,7 C 88 % 1013,5 hPa 0,0 mm 0,8 km/h (0 Bft) SW 225 11,9 C 0,0 km/h (0 Bft)
15.06.2015 00:30 13,8 C 13,7 C 88 % 1013,5 hPa 0,0 mm 0,3 km/h (0 Bft) S 180 11,8 C 0,0 km/h (0 Bft)
15.06.2015 00:35 13,8 C 13,7 C 88 % 1014,0 hPa 0,0 mm 0,8 km/h (0 Bft) SW 225 11,8 C 0,0 km/h (0 Bft)
15.06.2015 00:40 13,8 C 13,6 C 88 % 1014,0 hPa 0,0 mm 0,8 km/h (0 Bft) S-SO 157 11,8 C 0,0 km/h (0 Bft)
15.06.2015 00:45 13,8 C 13,6 C 88 % 1014,0 hPa 0,0 mm 0,3 km/h (0 Bft) SW 225 11,8 C 0,0 km/h (0 Bft)
15.06.2015 00:50 13,7 C 13,6 C 88 % 1014,0 hPa 0,0 mm 1,6 km/h (1 Bft) S 180 11,7 C 5,2 km/h (1 Bft)
15.06.2015 00:55 13,8 C 13,6 C 88 % 1013,8 hPa 0,0 mm 1,6 km/h (1 Bft) SW 225 11,8 C 0,0 km/h (0 Bft)
15.06.2015 01:00 13,8 C 13,6 C 88 % 1013,8 hPa 0,7 mm 2,1 km/h (1 Bft) S 180 11,8 C 5,4 km/h (1 Bft)
15.06.2015 01:05 13,8 C 13,6 C 88 % 1013,8 hPa 0,0 mm 1,6 km/h (1 Bft) NW 315 11,8 C 0,0 km/h (0 Bft)
15.06.2015 01:10 13,7 C 13,5 C 88 % 1013,8 hPa 0,0 mm 0,8 km/h (0 Bft) N-NW 337 11,7 C 3,9 km/h (1 Bft)
15.06.2015 01:15 13,7 C 13,5 C 88 % 1014,1 hPa 0,0 mm 1,3 km/h (1 Bft) SW 225 11,7 C 3,4 km/h (1 Bft)
15.06.2015 01:20 13,7 C 13,5 C 88 % 1014,1 hPa 0,0 mm 2,8 km/h (1 Bft) W-NW 292 11,7 C 4,1 km/h (1 Bft)
15.06.2015 01:25 13,7 C 13,5 C 88 % 1014,1 hPa 0,0 mm 4,1 km/h (1 Bft) W-NW 292 11,7 C 10,4 km/h (2 Bft)
15.06.2015 01:30 13,7 C 13,5 C 88 % 1014,1 hPa 0,0 mm 4,1 km/h (1 Bft) W-SW 247 11,7 C 8,5 km/h (2 Bft)
15.06.2015 01:35 13,6 C 13,4 C 88 % 1014,2 hPa 0,0 mm 3,1 km/h (1 Bft) S-SO 157 11,6 C 0,0 km/h (0 Bft)
15.06.2015 01:40 13,6 C 13,4 C 88 % 1014,2 hPa 0,0 mm 2,3 km/h (1 Bft) SO 135 11,6 C 3,9 km/h (1 Bft)
15.06.2015 01:45 13,6 C 13,4 C 88 % 1014,2 hPa 0,0 mm 1,3 km/h (1 Bft) S 180 11,6 C 0,0 km/h (0 Bft)
15.06.2015 01:50 13,6 C 13,4 C 88 % 1014,2 hPa 0,0 mm 0,8 km/h (0 Bft) W-SW 247 11,6 C 6,0 km/h (2 Bft)
15.06.2015 01:55 13,6 C 13,4 C 88 % 1014,3 hPa 0,0 mm 1,0 km/h (0 Bft) S 180 11,6 C 0,0 km/h (0 Bft)
15.06.2015 02:00 13,6 C 13,4 C 88 % 1014,3 hPa 0,0 mm 2,3 km/h (1 Bft) W-SW 247 11,6 C 8,0 km/h (2 Bft)
15.06.2015 02:05 13,6 C 13,4 C 88 % 1014,3 hPa 0,0 mm 3,1 km/h (1 Bft) SW 225 11,6 C 4,9 km/h (1 Bft)
15.06.2015 02:10 13,6 C 13,4 C 88 % 1014,3 hPa 0,0 mm 3,4 km/h (1 Bft) S-SW 202 11,6 C 0,0 km/h (0 Bft)
15.06.2015 02:15 13,6 C 13,4 C 88 % 1014,2 hPa 0,0 mm 3,1 km/h (1 Bft) SW 225 11,6 C 3,9 km/h (1 Bft)
15.06.2015 02:20 13,7 C 13,5 C 88 % 1014,2 hPa 0,0 mm 1,6 km/h (1 Bft) SW 225 11,7 C 0,0 km/h (0 Bft)
15.06.2015 02:25 13,7 C 13,5 C 88 % 1014,2 hPa 0,0 mm 1,6 km/h (1 Bft) W-SW 247 11,7 C 10,6 km/h (2 Bft)
15.06.2015 02:30 13,7 C 13,5 C 88 % 1014,2 hPa 0,0 mm 1,6 km/h (1 Bft) SW 225 11,7 C 3,6 km/h (1 Bft)
15.06.2015 02:35 13,7 C 13,5 C 89 % 1014,2 hPa 0,0 mm 2,1 km/h (1 Bft) SW 225 11,9 C 0,0 km/h (0 Bft)
15.06.2015 02:40 13,8 C 13,6 C 89 % 1014,2 hPa 0,0 mm 2,1 km/h (1 Bft) N-NW 337 12,0 C 7,5 km/h (2 Bft)
15.06.2015 02:45 13,8 C 13,6 C 89 % 1014,2 hPa 0,0 mm 2,1 km/h (1 Bft) W 270 12,0 C 0,0 km/h (0 Bft)
15.06.2015 02:50 13,9 C 13,7 C 89 % 1014,2 hPa 0,0 mm 2,6 km/h (1 Bft) W-SW 247 12,1 C 0,0 km/h (0 Bft)
15.06.2015 02:55 13,9 C 13,7 C 89 % 1013,9 hPa 0,0 mm 1,8 km/h (1 Bft) W-SW 247 12,1 C 0,0 km/h (0 Bft)
15.06.2015 03:00 13,9 C 13,7 C 89 % 1013,9 hPa 0,0 mm 1,3 km/h (1 Bft) S 180 12,1 C 3,4 km/h (1 Bft)
15.06.2015 03:05 13,9 C 13,7 C 89 % 1013,9 hPa 0,0 mm 1,3 km/h (1 Bft) W-SW 247 12,1 C 0,0 km/h (0 Bft)
15.06.2015 03:10 13,9 C 13,7 C 89 % 1013,9 hPa 0,0 mm 1,3 km/h (1 Bft) S-SO 157 12,1 C 0,0 km/h (0 Bft)
15.06.2015 03:15 13,9 C 13,7 C 89 % 1014,0 hPa 0,0 mm 1,0 km/h (0 Bft) W-NW 292 12,1 C 3,1 km/h (1 Bft)
15.06.2015 03:20 13,9 C 13,7 C 88 % 1014,0 hPa 0,0 mm 1,0 km/h (0 Bft) W-SW 247 11,9 C 0,0 km/h (0 Bft)
15.06.2015 03:25 13,9 C 13,7 C 88 % 1014,0 hPa 0,0 mm 2,1 km/h (1 Bft) W-SW 247 11,9 C 4,1 km/h (1 Bft)
15.06.2015 03:30 13,9 C 13,7 C 88 % 1014,0 hPa 0,0 mm 2,1 km/h (1 Bft) SW 225 11,9 C 0,0 km/h (0 Bft)
15.06.2015 03:35 13,9 C 13,7 C 88 % 1014,2 hPa 0,0 mm 1,8 km/h (1 Bft) W 270 11,9 C 0,0 km/h (0 Bft)
15.06.2015 03:40 13,9 C 13,7 C 88 % 1014,2 hPa 0,0 mm 1,0 km/h (0 Bft) S 180 11,9 C 0,0 km/h (0 Bft)
15.06.2015 03:45 13,9 C 13,7 C 88 % 1014,2 hPa 0,0 mm 0,5 km/h (0 Bft) W-NW 292 11,9 C 4,9 km/h (1 Bft)
15.06.2015 03:50 13,9 C 13,7 C 88 % 1014,2 hPa 0,0 mm 0,8 km/h (0 Bft) W-SW 247 11,9 C 4,1 km/h (1 Bft)
15.06.2015 03:55 13,9 C 13,7 C 88 % 1014,4 hPa 0,0 mm 0,8 km/h (0 Bft) S 180 11,9 C 0,0 km/h (0 Bft)
15.06.2015 04:00 13,9 C 13,7 C 88 % 1014,4 hPa 0,0 mm 1,6 km/h (1 Bft) W-SW 247 11,9 C 7,8 km/h (2 Bft)
15.06.2015 04:05 13,9 C 13,7 C 88 % 1014,4 hPa 0,0 mm 1,6 km/h (1 Bft) W 270 11,9 C 5,7 km/h (1 Bft)
15.06.2015 04:10 13,8 C 13,6 C 88 % 1014,4 hPa 0,0 mm 1,0 km/h (0 Bft) S-SO 157 11,8 C 0,0 km/h (0 Bft)
15.06.2015 04:15 13,8 C 13,6 C 88 % 1014,2 hPa 0,0 mm 0,5 km/h (0 Bft) SW 225 11,8 C 0,0 km/h (0 Bft)
15.06.2015 04:20 13,8 C 13,6 C 88 % 1014,2 hPa 0,0 mm 0,0 km/h (0 Bft) S 180 11,8 C 0,0 km/h (0 Bft)
15.06.2015 04:25 13,8 C 13,6 C 88 % 1014,2 hPa 0,0 mm 0,0 km/h (0 Bft) S 180 11,8 C 0,0 km/h (0 Bft)
15.06.2015 04:30 13,7 C 13,6 C 88 % 1014,2 hPa 0,0 mm 0,0 km/h (0 Bft) S 180 11,7 C 0,0 km/h (0 Bft)
15.06.2015 04:35 13,7 C 13,6 C 88 % 1014,1 hPa 0,0 mm 0,0 km/h (0 Bft) S 180 11,7 C 0,0 km/h (0 Bft)
15.06.2015 04:40 13,8 C 13,6 C 88 % 1014,1 hPa 0,0 mm 0,5 km/h (0 Bft) S 180 11,8 C 3,6 km/h (1 Bft)
15.06.2015 04:45 13,7 C 13,6 C 89 % 1014,1 hPa 0,0 mm 0,8 km/h (0 Bft) S-SW 202 11,9 C 0,0 km/h (0 Bft)
15.06.2015 04:50 13,7 C 13,5 C 89 % 1014,1 hPa 0,0 mm 0,5 km/h (0 Bft) S-SO 157 11,9 C 0,0 km/h (0 Bft)
15.06.2015 04:55 13,7 C 13,5 C 89 % 1014,2 hPa 0,0 mm 0,5 km/h (0 Bft) S-SW 202 11,9 C 2,8 km/h (1 Bft)
15.06.2015 05:00 13,7 C 13,5 C 89 % 1014,2 hPa 0,0 mm 0,5 km/h (0 Bft) SO 135 11,9 C 0,0 km/h (0 Bft)
15.06.2015 05:05 13,7 C 13,5 C 89 % 1014,2 hPa 0,0 mm 0,3 km/h (0 Bft) SO 135 11,9 C 0,0 km/h (0 Bft)
15.06.2015 05:10 13,5 C 13,4 C 89 % 1014,2 hPa 0,0 mm 0,0 km/h (0 Bft) S 180 11,7 C 0,0 km/h (0 Bft)
15.06.2015 05:15 13,5 C 13,4 C 89 % 1014,2 hPa 0,0 mm 0,0 km/h (0 Bft) S-SO 157 11,7 C 0,0 km/h (0 Bft)
15.06.2015 05:20 13,5 C 13,4 C 89 % 1014,2 hPa 0,0 mm 0,0 km/h (0 Bft) S-SO 157 11,7 C 0,0 km/h (0 Bft)
15.06.2015 05:25 13,5 C 13,4 C 89 % 1014,2 hPa 0,0 mm 0,0 km/h (0 Bft) S-SO 157 11,7 C 0,0 km/h (0 Bft)
15.06.2015 05:30 13,5 C 13,4 C 89 % 1014,2 hPa 0,0 mm 0,0 km/h (0 Bft) SO 135 11,7 C 0,0 km/h (0 Bft)
15.06.2015 05:35 13,5 C 13,4 C 89 % 1014,3 hPa 0,0 mm 0,0 km/h (0 Bft) SO 135 11,7 C 0,0 km/h (0 Bft)
15.06.2015 05:40 13,5 C 13,4 C 89 % 1014,3 hPa 0,0 mm 0,0 km/h (0 Bft) S 180 11,7 C 0,0 km/h (0 Bft)
15.06.2015 05:45 13,5 C 13,4 C 89 % 1014,3 hPa 0,0 mm 0,0 km/h (0 Bft) SO 135 11,7 C 0,0 km/h (0 Bft)
15.06.2015 05:50 13,5 C 13,4 C 89 % 1014,3 hPa 0,0 mm 0,0 km/h (0 Bft) S-SO 157 11,7 C 0,0 km/h (0 Bft)
15.06.2015 05:55 13,5 C 13,4 C 89 % 1014,4 hPa 0,0 mm 0,0 km/h (0 Bft) O-SO 112 11,7 C 0,0 km/h (0 Bft)
15.06.2015 06:00 13,5 C 13,4 C 89 % 1014,4 hPa 0,0 mm 0,0 km/h (0 Bft) O-SO 112 11,7 C 0,0 km/h (0 Bft)
15.06.2015 06:05 13,5 C 13,4 C 89 % 1014,4 hPa 0,0 mm 0,0 km/h (0 Bft) SO 135 11,7 C 0,0 km/h (0 Bft)
15.06.2015 06:10 13,5 C 13,4 C 89 % 1014,4 hPa 0,0 mm 0,0 km/h (0 Bft) S 180 11,7 C 0,0 km/h (0 Bft)
15.06.2015 06:15 13,5 C 13,5 C 87 % 1014,2 hPa 0,0 mm 0,0 km/h (0 Bft) S-SO 157 11,4 C 0,0 km/h (0 Bft)
15.06.2015 06:20 13,5 C 13,5 C 87 % 1014,2 hPa 0,0 mm 0,0 km/h (0 Bft) S-SO 157 11,4 C 0,0 km/h (0 Bft)
15.06.2015 06:25 13,6 C 13,6 C 87 % 1014,2 hPa 0,0 mm 0,0 km/h (0 Bft) S-SO 157 11,5 C 0,0 km/h (0 Bft)
15.06.2015 06:30 13,6 C 13,6 C 87 % 1014,2 hPa 0,0 mm 0,0 km/h (0 Bft) SO 135 11,5 C 0,0 km/h (0 Bft)
15.06.2015 06:35 13,7 C 13,7 C 87 % 1014,6 hPa 0,0 mm 0,0 km/h (0 Bft) S 180 11,6 C 0,0 km/h (0 Bft)
15.06.2015 06:40 13,8 C 13,8 C 87 % 1014,6 hPa 0,0 mm 0,0 km/h (0 Bft) SO 135 11,7 C 0,0 km/h (0 Bft)
15.06.2015 06:45 13,8 C 13,8 C 87 % 1014,6 hPa 0,0 mm 0,0 km/h (0 Bft) SO 135 11,7 C 0,0 km/h (0 Bft)
15.06.2015 06:50 13,9 C 13,9 C 87 % 1014,6 hPa 0,0 mm 0,0 km/h (0 Bft) SO 135 11,8 C 0,0 km/h (0 Bft)
15.06.2015 06:55 13,9 C 13,9 C 87 % 1014,6 hPa 0,0 mm 0,0 km/h (0 Bft) SO 135 11,8 C 0,0 km/h (0 Bft)
15.06.2015 07:00 14,0 C 14,1 C 87 % 1014,6 hPa 0,0 mm 0,0 km/h (0 Bft) O-SO 112 11,9 C 0,0 km/h (0 Bft)
15.06.2015 07:05 14,1 C 14,2 C 87 % 1014,6 hPa 0,0 mm 0,0 km/h (0 Bft) S 180 12,0 C 0,0 km/h (0 Bft)
15.06.2015 07:10 14,2 C 14,4 C 87 % 1014,6 hPa 0,0 mm 0,0 km/h (0 Bft) S-SW 202 12,1 C 0,0 km/h (0 Bft)
15.06.2015 07:15 14,2 C 14,5 C 87 % 1014,6 hPa 0,0 mm 0,0 km/h (0 Bft) S-SW 202 12,1 C 0,0 km/h (0 Bft)
15.06.2015 07:20 14,3 C 14,5 C 87 % 1014,6 hPa 0,0 mm 0,0 km/h (0 Bft) S-SW 202 12,2 C 0,0 km/h (0 Bft)
15.06.2015 07:25 14,4 C 14,6 C 87 % 1014,6 hPa 0,0 mm 0,0 km/h (0 Bft) S 180 12,3 C 0,0 km/h (0 Bft)
15.06.2015 07:30 14,4 C 14,6 C 87 % 1014,6 hPa 0,0 mm 0,0 km/h (0 Bft) S-SW 202 12,3 C 0,0 km/h (0 Bft)
15.06.2015 07:35 14,5 C 14,7 C 87 % 1014,9 hPa 0,0 mm 0,0 km/h (0 Bft) S-SW 202 12,4 C 0,0 km/h (0 Bft)
15.06.2015 07:40 14,5 C 14,7 C 87 % 1014,9 hPa 0,0 mm 0,0 km/h (0 Bft) NW 315 12,4 C 0,0 km/h (0 Bft)
15.06.2015 07:45 14,6 C 14,7 C 87 % 1014,9 hPa 0,0 mm 0,0 km/h (0 Bft) NW 315 12,5 C 0,0 km/h (0 Bft)
15.06.2015 07:50 14,7 C 14,8 C 87 % 1014,9 hPa 0,0 mm 0,0 km/h (0 Bft) NW 315 12,6 C 0,0 km/h (0 Bft)
15.06.2015 07:55 14,7 C 14,8 C 87 % 1014,9 hPa 0,0 mm 0,0 km/h (0 Bft) W-NW 292 12,6 C 0,0 km/h (0 Bft)
15.06.2015 08:00 14,7 C 14,9 C 86 % 1014,9 hPa 0,0 mm 0,0 km/h (0 Bft) W 270 12,4 C 0,0 km/h (0 Bft)
15.06.2015 08:05 14,7 C 15,0 C 86 % 1014,9 hPa 0,0 mm 0,0 km/h (0 Bft) NW 315 12,4 C 0,0 km/h (0 Bft)
15.06.2015 08:10 14,9 C 15,2 C 86 % 1014,9 hPa 0,0 mm 0,0 km/h (0 Bft) NW 315 12,6 C 0,0 km/h (0 Bft)
15.06.2015 08:15 15,0 C 15,3 C 86 % 1015,2 hPa 0,0 mm 0,0 km/h (0 Bft) NW 315 12,7 C 0,0 km/h (0 Bft)
15.06.2015 08:20 15,1 C 15,5 C 86 % 1015,2 hPa 0,0 mm 0,0 km/h (0 Bft) NW 315 12,8 C 0,0 km/h (0 Bft)
15.06.2015 08:25 15,1 C 15,7 C 86 % 1015,2 hPa 0,0 mm 0,0 km/h (0 Bft) W-NW 292 12,8 C 0,0 km/h (0 Bft)
15.06.2015 08:30 15,1 C 15,9 C 86 % 1015,2 hPa 0,0 mm 0,3 km/h (0 Bft) NW 315 12,8 C 2,8 km/h (1 Bft)
15.06.2015 08:35 15,1 C 15,8 C 86 % 1015,4 hPa 0,0 mm 0,5 km/h (0 Bft) NW 315 12,8 C 0,0 km/h (0 Bft)
15.06.2015 08:40 15,1 C 15,7 C 86 % 1015,4 hPa 0,0 mm 1,3 km/h (1 Bft) N-NW 337 12,8 C 0,0 km/h (0 Bft)
15.06.2015 08:45 15,2 C 15,7 C 86 % 1015,4 hPa 0,0 mm 0,8 km/h (0 Bft) N-NO 22 12,9 C 0,0 km/h (0 Bft)
15.06.2015 08:50 15,2 C 15,9 C 85 % 1015,4 hPa 0,0 mm 0,5 km/h (0 Bft) NW 315 12,7 C 3,9 km/h (1 Bft)
15.06.2015 08:55 15,2 C 15,9 C 85 % 1015,8 hPa 0,0 mm 1,0 km/h (0 Bft) N-NW 337 12,7 C 0,0 km/h (0 Bft)
15.06.2015 09:00 15,3 C 15,7 C 85 % 1015,8 hPa 0,0 mm 1,3 km/h (1 Bft) N-NO 22 12,8 C 4,9 km/h (1 Bft)
15.06.2015 09:05 15,3 C 15,7 C 85 % 1015,8 hPa 0,0 mm 1,8 km/h (1 Bft) NW 315 12,8 C 7,8 km/h (2 Bft)
15.06.2015 09:10 15,4 C 15,7 C 85 % 1015,8 hPa 0,0 mm 3,1 km/h (1 Bft) NW 315 12,9 C 5,2 km/h (1 Bft)
15.06.2015 09:15 15,4 C 15,7 C 85 % 1015,8 hPa 0,0 mm 3,9 km/h (1 Bft) N-NW 337 12,9 C 5,7 km/h (1 Bft)
15.06.2015 09:20 15,5 C 15,7 C 85 % 1015,8 hPa 0,0 mm 4,1 km/h (1 Bft) N-NW 337 13,0 C 5,2 km/h (1 Bft)
15.06.2015 09:25 15,5 C 15,6 C 85 % 1015,8 hPa 0,0 mm 3,9 km/h (1 Bft) N-NO 22 13,0 C 3,9 km/h (1 Bft)
15.06.2015 09:30 15,5 C 15,6 C 85 % 1015,8 hPa 0,0 mm 3,4 km/h (1 Bft) NW 315 13,0 C 0,0 km/h (0 Bft)
15.06.2015 09:35 15,5 C 15,6 C 85 % 1015,9 hPa 0,0 mm 3,6 km/h (1 Bft) NW 315 13,0 C 5,2 km/h (1 Bft)
15.06.2015 09:40 15,5 C 15,7 C 85 % 1015,9 hPa 0,0 mm 2,6 km/h (1 Bft) W-SW 247 13,0 C 7,3 km/h (2 Bft)
15.06.2015 09:45 15,4 C 15,7 C 85 % 1015,9 hPa 0,0 mm 3,4 km/h (1 Bft) N 360 12,9 C 5,4 km/h (1 Bft)
15.06.2015 09:50 15,4 C 15,6 C 85 % 1015,9 hPa 0,7 mm 3,9 km/h (1 Bft) W-NW 292 12,9 C 3,9 km/h (1 Bft)
15.06.2015 09:55 15,4 C 15,6 C 85 % 1015,8 hPa 0,0 mm 2,6 km/h (1 Bft) SW 225 12,9 C 0,0 km/h (0 Bft)
15.06.2015 10:00 15,4 C 15,7 C 84 % 1015,8 hPa 0,0 mm 2,6 km/h (1 Bft) NW 315 12,7 C 8,5 km/h (2 Bft)
15.06.2015 10:05 15,5 C 15,7 C 84 % 1015,8 hPa 0,0 mm 3,1 km/h (1 Bft) W 270 12,8 C 6,7 km/h (2 Bft)
15.06.2015 10:10 15,5 C 15,7 C 84 % 1015,8 hPa 0,0 mm 3,4 km/h (1 Bft) W 270 12,8 C 2,6 km/h (1 Bft)
15.06.2015 10:15 15,5 C 15,6 C 84 % 1016,1 hPa 0,0 mm 3,1 km/h (1 Bft) SW 225 12,8 C 3,6 km/h (1 Bft)
15.06.2015 10:20 15,4 C 15,3 C 84 % 1016,1 hPa 0,0 mm 1,8 km/h (1 Bft) NW 315 12,7 C 4,1 km/h (1 Bft)
15.06.2015 10:25 15,3 C 15,3 C 84 % 1016,1 hPa 0,0 mm 1,0 km/h (0 Bft) W-NW 292 12,6 C 0,0 km/h (0 Bft)
15.06.2015 10:30 15,3 C 15,2 C 84 % 1016,1 hPa 0,0 mm 2,1 km/h (1 Bft) W 270 12,6 C 6,0 km/h (2 Bft)
15.06.2015 10:35 15,2 C 15,1 C 84 % 1016,5 hPa 0,0 mm 3,6 km/h (1 Bft) N-NW 337 12,5 C 7,3 km/h (2 Bft)
15.06.2015 10:40 15,1 C 15,1 C 84 % 1016,5 hPa 0,0 mm 4,9 km/h (1 Bft) W 270 12,4 C 5,4 km/h (1 Bft)
15.06.2015 10:45 15,1 C 15,0 C 84 % 1016,5 hPa 0,0 mm 4,1 km/h (1 Bft) W-SW 247 12,4 C 0,0 km/h (0 Bft)
15.06.2015 10:50 15,0 C 15,0 C 84 % 1016,5 hPa 0,0 mm 5,4 km/h (1 Bft) N 360 12,3 C 6,0 km/h (2 Bft)
15.06.2015 10:55 15,1 C 15,1 C 84 % 1016,8 hPa 0,7 mm 5,7 km/h (1 Bft) NW 315 12,4 C 8,0 km/h (2 Bft)
15.06.2015 11:00 15,1 C 15,2 C 84 % 1016,8 hPa 0,0 mm 5,2 km/h (1 Bft) W-NW 292 12,4 C 4,9 km/h (1 Bft)
15.06.2015 11:05 15,2 C 15,2 C 84 % 1016,8 hPa 0,0 mm 4,9 km/h (1 Bft) W 270 12,5 C 7,5 km/h (2 Bft)
15.06.2015 11:10 15,2 C 15,2 C 84 % 1016,8 hPa 0,0 mm 5,7 km/h (1 Bft) NW 315 12,5 C 8,3 km/h (2 Bft)
15.06.2015 11:15 15,2 C 15,2 C 84 % 1016,8 hPa 0,0 mm 5,7 km/h (1 Bft) NW 315 12,5 C 8,0 km/h (2 Bft)
15.06.2015 11:20 15,2 C 15,3 C 84 % 1016,8 hPa 0,0 mm 5,7 km/h (1 Bft) NW 315 12,5 C 5,4 km/h (1 Bft)
15.06.2015 11:25 15,3 C 15,3 C 84 % 1016,8 hPa 0,0 mm 6,0 km/h (2 Bft) W-NW 292 12,6 C 7,8 km/h (2 Bft)
15.06.2015 11:30 15,2 C 15,2 C 84 % 1016,8 hPa 0,0 mm 4,9 km/h (1 Bft) NW 315 12,5 C 7,5 km/h (2 Bft)
15.06.2015 11:35 15,2 C 15,2 C 84 % 1016,9 hPa 0,0 mm 5,2 km/h (1 Bft) W-NW 292 12,5 C 6,5 km/h (2 Bft)
15.06.2015 11:40 15,2 C 15,2 C 84 % 1016,9 hPa 0,0 mm 6,0 km/h (2 Bft) NW 315 12,5 C 6,7 km/h (2 Bft)
15.06.2015 11:45 15,2 C 15,4 C 84 % 1016,9 hPa 0,7 mm 5,2 km/h (1 Bft) W 270 12,5 C 6,5 km/h (2 Bft)
15.06.2015 11:50 15,3 C 15,3 C 84 % 1016,9 hPa 0,0 mm 4,7 km/h (1 Bft) W-NW 292 12,6 C 4,9 km/h (1 Bft)
15.06.2015 11:55 15,3 C 15,4 C 84 % 1017,2 hPa 0,0 mm 4,1 km/h (1 Bft) NW 315 12,6 C 3,6 km/h (1 Bft)
15.06.2015 12:00 15,4 C 15,7 C 84 % 1017,2 hPa 0,0 mm 3,6 km/h (1 Bft) NO 45 12,7 C 10,1 km/h (2 Bft)
15.06.2015 12:05 15,5 C 15,7 C 84 % 1017,2 hPa 0,0 mm 3,9 km/h (1 Bft) W 270 12,8 C 8,0 km/h (2 Bft)
15.06.2015 12:10 15,6 C 15,8 C 84 % 1017,2 hPa 0,0 mm 6,0 km/h (2 Bft) W 270 12,9 C 8,3 km/h (2 Bft)
15.06.2015 12:15 15,6 C 15,9 C 84 % 1017,2 hPa 0,0 mm 4,9 km/h (1 Bft) NW 315 12,9 C 5,2 km/h (1 Bft)
15.06.2015 12:20 15,7 C 16,1 C 84 % 1017,2 hPa 0,0 mm 3,6 km/h (1 Bft) W-NW 292 13,0 C 0,0 km/h (0 Bft)
15.06.2015 12:25 15,9 C 16,2 C 84 % 1017,2 hPa 0,0 mm 3,6 km/h (1 Bft) W 270 13,2 C 2,8 km/h (1 Bft)
15.06.2015 12:30 15,9 C 16,2 C 84 % 1017,2 hPa 0,0 mm 4,1 km/h (1 Bft) W 270 13,2 C 7,0 km/h (2 Bft)
15.06.2015 12:35 15,9 C 16,3 C 84 % 1017,2 hPa 0,0 mm 4,1 km/h (1 Bft) W 270 13,2 C 4,7 km/h (1 Bft)
15.06.2015 12:40 15,9 C 16,2 C 84 % 1017,2 hPa 0,0 mm 5,2 km/h (1 Bft) W 270 13,2 C 14,8 km/h (3 Bft)
15.06.2015 12:45 15,9 C 15,9 C 84 % 1017,2 hPa 0,0 mm 7,3 km/h (2 Bft) NW 315 13,2 C 10,6 km/h (2 Bft)
15.06.2015 12:50 16,0 C 16,3 C 83 % 1017,2 hPa 0,0 mm 8,0 km/h (2 Bft) W 270 13,1 C 6,5 km/h (2 Bft)
15.06.2015 12:55 16,1 C 16,3 C 83 % 1017,4 hPa 0,0 mm 6,5 km/h (2 Bft) W-NW 292 13,2 C 8,5 km/h (2 Bft)
15.06.2015 13:00 16,1 C 16,3 C 83 % 1017,4 hPa 0,0 mm 7,3 km/h (2 Bft) S 180 13,2 C 6,0 km/h (2 Bft)
15.06.2015 13:05 16,0 C 16,1 C 83 % 1017,4 hPa 0,0 mm 6,7 km/h (2 Bft) W-NW 292 13,1 C 5,7 km/h (1 Bft)
15.06.2015 13:10 16,0 C 16,2 C 83 % 1017,4 hPa 0,0 mm 4,7 km/h (1 Bft) W-NW 292 13,1 C 6,5 km/h (2 Bft)
15.06.2015 13:15 15,9 C 15,8 C 83 % 1017,9 hPa 0,0 mm 5,2 km/h (1 Bft) N 360 13,0 C 8,3 km/h (2 Bft)
15.06.2015 13:20 15,8 C 15,8 C 83 % 1017,9 hPa 0,0 mm 5,4 km/h (1 Bft) NW 315 12,9 C 6,7 km/h (2 Bft)
15.06.2015 13:25 15,7 C 15,9 C 83 % 1017,9 hPa 0,7 mm 3,4 km/h (1 Bft) NW 315 12,8 C 0,0 km/h (0 Bft)
15.06.2015 13:30 15,9 C 16,2 C 83 % 1017,9 hPa 0,0 mm 2,6 km/h (1 Bft) SW 225 13,0 C 7,5 km/h (2 Bft)
15.06.2015 13:35 15,8 C 16,1 C 83 % 1017,8 hPa 0,0 mm 3,1 km/h (1 Bft) S 180 12,9 C 0,0 km/h (0 Bft)
15.06.2015 13:40 15,9 C 16,3 C 83 % 1017,8 hPa 0,0 mm 2,1 km/h (1 Bft) N-NO 22 13,0 C 3,1 km/h (1 Bft)
15.06.2015 13:45 15,9 C 16,4 C 83 % 1017,8 hPa 0,0 mm 1,3 km/h (1 Bft) S 180 13,0 C 2,8 km/h (1 Bft)
15.06.2015 13:50 16,0 C 16,4 C 83 % 1017,8 hPa 0,0 mm 2,1 km/h (1 Bft) W 270 13,1 C 4,1 km/h (1 Bft)
15.06.2015 13:55 16,0 C 16,4 C 83 % 1017,6 hPa 0,0 mm 2,1 km/h (1 Bft) W-NW 292 13,1 C 3,6 km/h (1 Bft)
15.06.2015 14:00 16,1 C 16,6 C 83 % 1017,6 hPa 0,0 mm 1,3 km/h (1 Bft) W 270 13,2 C 0,0 km/h (0 Bft)
15.06.2015 14:05 16,3 C 16,7 C 83 % 1017,6 hPa 0,0 mm 1,8 km/h (1 Bft) W-NW 292 13,4 C 3,6 km/h (1 Bft)
15.06.2015 14:10 16,3 C 16,6 C 83 % 1017,6 hPa 0,0 mm 2,8 km/h (1 Bft) W-NW 292 13,4 C 7,5 km/h (2 Bft)
15.06.2015 14:15 16,3 C 16,5 C 83 % 1018,0 hPa 0,0 mm 4,4 km/h (1 Bft) W-NW 292 13,4 C 11,4 km/h (2 Bft)
15.06.2015 14:20 16,2 C 16,4 C 83 % 1018,0 hPa 0,0 mm 6,2 km/h (2 Bft) W 270 13,3 C 4,9 km/h (1 Bft)
15.06.2015 14:25 16,2 C 16,4 C 82 % 1018,0 hPa 0,0 mm 5,4 km/h (1 Bft) O 90 13,1 C 3,1 km/h (1 Bft)
15.06.2015 14:30 16,3 C 16,7 C 82 % 1018,0 hPa 0,0 mm 3,4 km/h (1 Bft) W-SW 247 13,2 C 4,9 km/h (1 Bft)
15.06.2015 14:35 16,5 C 17,1 C 83 % 1017,8 hPa 0,0 mm 2,6 km/h (1 Bft) NW 315 13,6 C 0,0 km/h (0 Bft)
15.06.2015 14:40 16,7 C 17,3 C 82 % 1017,8 hPa 0,0 mm 3,9 km/h (1 Bft) W-NW 292 13,6 C 12,9 km/h (3 Bft)
15.06.2015 14:45 16,7 C 17,2 C 82 % 1017,8 hPa 0,0 mm 5,2 km/h (1 Bft) W 270 13,6 C 6,5 km/h (2 Bft)
15.06.2015 14:50 16,7 C 17,1 C 82 % 1017,8 hPa 0,0 mm 7,5 km/h (2 Bft) W 270 13,6 C 7,0 km/h (2 Bft)
15.06.2015 14:55 16,6 C 16,9 C 82 % 1018,0 hPa 0,0 mm 7,5 km/h (2 Bft) W 270 13,5 C 8,0 km/h (2 Bft)
15.06.2015 15:00 16,5 C 17,0 C 82 % 1018,0 hPa 0,0 mm 6,0 km/h (2 Bft) NW 315 13,4 C 4,7 km/h (1 Bft)
15.06.2015 15:05 16,6 C 17,2 C 82 % 1018,0 hPa 0,0 mm 6,0 km/h (2 Bft) W 270 13,5 C 9,3 km/h (2 Bft)
15.06.2015 15:10 16,6 C 17,1 C 81 % 1018,0 hPa 0,0 mm 7,8 km/h (2 Bft) W-NW 292 13,3 C 12,7 km/h (3 Bft)
15.06.2015 15:15 16,6 C 17,2 C 81 % 1018,1 hPa 0,0 mm 8,5 km/h (2 Bft) W-NW 292 13,3 C 11,9 km/h (2 Bft)
15.06.2015 15:20 16,7 C 17,2 C 81 % 1018,1 hPa 0,0 mm 9,6 km/h (2 Bft) W 270 13,4 C 11,4 km/h (2 Bft)
15.06.2015 15:25 16,6 C 17,0 C 81 % 1018,1 hPa 0,0 mm 10,4 km/h (2 Bft) W-NW 292 13,3 C 16,3 km/h (3 Bft)
15.06.2015 15:30 16,2 C 16,6 C 81 % 1018,1 hPa 0,0 mm 10,4 km/h (2 Bft) S-SW 202 12,9 C 9,3 km/h (2 Bft)
15.06.2015 15:35 16,2 C 16,5 C 81 % 1018,2 hPa 0,0 mm 10,1 km/h (2 Bft) NW 315 12,9 C 9,1 km/h (2 Bft)
15.06.2015 15:40 16,4 C 16,9 C 81 % 1018,2 hPa 0,0 mm 7,8 km/h (2 Bft) N-NW 337 13,1 C 9,8 km/h (2 Bft)
15.06.2015 15:45 16,4 C 16,9 C 81 % 1018,2 hPa 0,0 mm 7,5 km/h (2 Bft) N 360 13,1 C 8,5 km/h (2 Bft)
15.06.2015 15:50 16,5 C 17,2 C 82 % 1018,2 hPa 0,0 mm 7,3 km/h (2 Bft) NO 45 13,4 C 11,1 km/h (2 Bft)
15.06.2015 15:55 16,3 C 16,9 C 82 % 1018,3 hPa 0,0 mm 7,0 km/h (2 Bft) N-NO 22 13,2 C 12,7 km/h (3 Bft)
15.06.2015 16:00 16,0 C 16,4 C 82 % 1018,3 hPa 0,0 mm 7,5 km/h (2 Bft) N-NW 337 12,9 C 12,4 km/h (3 Bft)
15.06.2015 16:05 15,9 C 16,2 C 83 % 1018,3 hPa 0,0 mm 7,8 km/h (2 Bft) NW 315 13,0 C 4,9 km/h (1 Bft)
15.06.2015 16:10 15,8 C 16,0 C 82 % 1018,3 hPa 0,7 mm 7,5 km/h (2 Bft) N 360 12,7 C 11,9 km/h (2 Bft)
15.06.2015 16:15 15,8 C 15,8 C 82 % 1018,2 hPa 0,0 mm 7,0 km/h (2 Bft) S-SW 202 12,7 C 7,0 km/h (2 Bft)
15.06.2015 16:20 15,7 C 15,6 C 82 % 1018,2 hPa 0,0 mm 7,3 km/h (2 Bft) O-NO 67 12,6 C 9,1 km/h (2 Bft)
15.06.2015 16:25 15,5 C 15,3 C 82 % 1018,2 hPa 0,0 mm 7,5 km/h (2 Bft) NW 315 12,4 C 9,8 km/h (2 Bft)
15.06.2015 16:30 15,3 C 15,2 C 82 % 1018,2 hPa 0,0 mm 7,3 km/h (2 Bft) N-NW 337 12,2 C 5,4 km/h (1 Bft)
15.06.2015 16:35 15,2 C 15,1 C 83 % 1018,2 hPa 0,0 mm 5,2 km/h (1 Bft) O-NO 67 12,3 C 7,0 km/h (2 Bft)
15.06.2015 16:40 15,1 C 15,0 C 83 % 1018,2 hPa 0,0 mm 2,3 km/h (1 Bft) O-SO 112 12,2 C 5,2 km/h (1 Bft)
15.06.2015 16:45 14,9 C 14,7 C 83 % 1018,2 hPa 0,0 mm 1,6 km/h (1 Bft) SW 225 12,0 C 0,0 km/h (0 Bft)
15.06.2015 16:50 14,6 C 14,4 C 83 % 1018,2 hPa 0,7 mm 1,6 km/h (1 Bft) NW 315 11,7 C 0,0 km/h (0 Bft)
15.06.2015 16:55 14,6 C 14,4 C 83 % 1018,5 hPa 0,0 mm 0,3 km/h (0 Bft) SO 135 11,7 C 0,0 km/h (0 Bft)
15.06.2015 17:00 14,5 C 14,4 C 83 % 1018,5 hPa 0,0 mm 0,0 km/h (0 Bft) NO 45 11,6 C 0,0 km/h (0 Bft)
15.06.2015 17:05 14,5 C 14,3 C 84 % 1018,5 hPa 0,0 mm 0,0 km/h (0 Bft) O-NO 67 11,8 C 0,0 km/h (0 Bft)
15.06.2015 17:10 14,4 C 14,2 C 85 % 1018,5 hPa 0,7 mm 0,5 km/h (0 Bft) O 90 11,9 C 0,0 km/h (0 Bft)
15.06.2015 17:15 14,4 C 14,2 C 85 % 1018,2 hPa 0,0 mm 1,0 km/h (0 Bft) O-SO 112 11,9 C 0,0 km/h (0 Bft)
15.06.2015 17:20 14,3 C 14,1 C 85 % 1018,2 hPa 0,0 mm 1,0 km/h (0 Bft) O-NO 67 11,8 C 0,0 km/h (0 Bft)
15.06.2015 17:25 14,3 C 14,1 C 85 % 1018,2 hPa 0,0 mm 0,5 km/h (0 Bft) O-SO 112 11,8 C 0,0 km/h (0 Bft)
15.06.2015 17:30 14,2 C 14,2 C 84 % 1018,2 hPa 0,0 mm 0,3 km/h (0 Bft) S 180 11,5 C 0,0 km/h (0 Bft)
15.06.2015 17:35 14,2 C 14,2 C 84 % 1018,2 hPa 0,0 mm 0,3 km/h (0 Bft) W-NW 292 11,5 C 0,0 km/h (0 Bft)
15.06.2015 17:40 14,4 C 14,4 C 84 % 1018,2 hPa 0,0 mm 0,0 km/h (0 Bft) O 90 11,7 C 0,0 km/h (0 Bft)
15.06.2015 17:45 14,4 C 14,3 C 84 % 1018,2 hPa 0,0 mm 0,0 km/h (0 Bft) NO 45 11,7 C 0,0 km/h (0 Bft)
15.06.2015 17:50 14,5 C 14,5 C 84 % 1018,2 hPa 0,0 mm 0,0 km/h (0 Bft) S-SO 157 11,8 C 0,0 km/h (0 Bft)
15.06.2015 17:55 14,5 C 14,6 C 84 % 1018,4 hPa 0,0 mm 0,0 km/h (0 Bft) O-SO 112 11,8 C 3,1 km/h (1 Bft)
15.06.2015 18:00 14,4 C 14,5 C 84 % 1018,4 hPa 0,0 mm 0,3 km/h (0 Bft) SO 135 11,7 C 0,0 km/h (0 Bft)
15.06.2015 18:05 14,4 C 14,4 C 84 % 1018,4 hPa 0,0 mm 0,3 km/h (0 Bft) S 180 11,7 C 0,0 km/h (0 Bft)
15.06.2015 18:10 14,3 C 14,3 C 84 % 1018,4 hPa 0,0 mm 0,0 km/h (0 Bft) S-SO 157 11,6 C 0,0 km/h (0 Bft)
15.06.2015 18:15 14,3 C 14,3 C 84 % 1018,3 hPa 0,0 mm 0,3 km/h (0 Bft) S 180 11,6 C 0,0 km/h (0 Bft)
15.06.2015 18:20 14,2 C 14,2 C 84 % 1018,3 hPa 0,0 mm 0,3 km/h (0 Bft) S-SO 157 11,5 C 0,0 km/h (0 Bft)
15.06.2015 18:25 14,2 C 14,2 C 84 % 1018,3 hPa 0,0 mm 0,3 km/h (0 Bft) SW 225 11,5 C 2,8 km/h (1 Bft)
15.06.2015 18:30 14,2 C 14,2 C 84 % 1018,3 hPa 0,0 mm 0,3 km/h (0 Bft) SW 225 11,5 C 3,4 km/h (1 Bft)
15.06.2015 18:35 14,1 C 14,1 C 84 % 1018,4 hPa 0,0 mm 0,8 km/h (0 Bft) W-SW 247 11,4 C 4,9 km/h (1 Bft)
15.06.2015 18:40 14,0 C 14,0 C 85 % 1018,4 hPa 0,0 mm 2,8 km/h (1 Bft) W-SW 247 11,5 C 4,9 km/h (1 Bft)
15.06.2015 18:45 13,9 C 13,9 C 85 % 1018,4 hPa 0,0 mm 3,9 km/h (1 Bft) W 270 11,4 C 7,0 km/h (2 Bft)
15.06.2015 18:50 13,8 C 13,7 C 85 % 1018,4 hPa 0,0 mm 3,9 km/h (1 Bft) SW 225 11,3 C 5,2 km/h (1 Bft)
15.06.2015 18:55 13,8 C 13,7 C 85 % 1018,6 hPa 0,0 mm 3,6 km/h (1 Bft) SW 225 11,3 C 4,7 km/h (1 Bft)
15.06.2015 19:00 13,8 C 13,7 C 85 % 1018,6 hPa 0,0 mm 2,1 km/h (1 Bft) S-SO 157 11,3 C 0,0 km/h (0 Bft)
15.06.2015 19:05 13,8 C 13,7 C 85 % 1018,6 hPa 0,0 mm 1,3 km/h (1 Bft) O-SO 112 11,3 C 0,0 km/h (0 Bft)
15.06.2015 19:10 13,7 C 13,7 C 85 % 1018,6 hPa 0,0 mm 1,0 km/h (0 Bft) W 270 11,2 C 3,4 km/h (1 Bft)
15.06.2015 19:15 13,7 C 13,7 C 85 % 1018,4 hPa 0,0 mm 1,6 km/h (1 Bft) S 180 11,2 C 3,9 km/h (1 Bft)
15.06.2015 19:20 13,7 C 13,7 C 85 % 1018,4 hPa 0,0 mm 1,6 km/h (1 Bft) S 180 11,2 C 6,0 km/h (2 Bft)
15.06.2015 19:25 13,6 C 13,6 C 85 % 1018,4 hPa 0,0 mm 3,6 km/h (1 Bft) SW 225 11,1 C 6,5 km/h (2 Bft)
15.06.2015 19:30 13,6 C 13,6 C 85 % 1018,4 hPa 0,0 mm 3,4 km/h (1 Bft) S 180 11,1 C 0,0 km/h (0 Bft)
15.06.2015 19:35 13,6 C 13,6 C 85 % 1018,6 hPa 0,0 mm 1,6 km/h (1 Bft) W-SW 247 11,1 C 0,0 km/h (0 Bft)
15.06.2015 19:40 13,6 C 13,6 C 85 % 1018,6 hPa 0,0 mm 0,0 km/h (0 Bft) W-SW 247 11,1 C 0,0 km/h (0 Bft)
15.06.2015 19:45 13,6 C 13,7 C 85 % 1018,6 hPa 0,0 mm 0,3 km/h (0 Bft) SW 225 11,1 C 0,0 km/h (0 Bft)
15.06.2015 19:50 13,6 C 13,6 C 85 % 1018,6 hPa 0,0 mm 2,1 km/h (1 Bft) S 180 11,1 C 3,6 km/h (1 Bft)
15.06.2015 19:55 13,6 C 13,7 C 86 % 1018,7 hPa 0,0 mm 2,1 km/h (1 Bft) NW 315 11,3 C 0,0 km/h (0 Bft)
15.06.2015 20:00 13,6 C 13,6 C 86 % 1018,7 hPa 0,0 mm 1,6 km/h (1 Bft) W 270 11,3 C 7,0 km/h (2 Bft)
15.06.2015 20:05 13,4 C 13,5 C 86 % 1018,7 hPa 0,0 mm 2,3 km/h (1 Bft) W 270 11,1 C 0,0 km/h (0 Bft)
15.06.2015 20:10 13,5 C 13,5 C 86 % 1018,7 hPa 0,0 mm 1,6 km/h (1 Bft) S 180 11,2 C 0,0 km/h (0 Bft)
15.06.2015 20:15 13,5 C 13,5 C 86 % 1018,7 hPa 0,0 mm 0,0 km/h (0 Bft) SO 135 11,2 C 0,0 km/h (0 Bft)
15.06.2015 20:20 13,6 C 13,6 C 86 % 1018,7 hPa 0,0 mm 0,0 km/h (0 Bft) O-SO 112 11,3 C 0,0 km/h (0 Bft)
15.06.2015 20:25 13,6 C 13,5 C 87 % 1018,7 hPa 0,0 mm 0,0 km/h (0 Bft) O-NO 67 11,5 C 0,0 km/h (0 Bft)
15.06.2015 20:30 13,5 C 13,4 C 87 % 1018,7 hPa 0,0 mm 0,0 km/h (0 Bft) SO 135 11,4 C 0,0 km/h (0 Bft)
15.06.2015 20:35 13,4 C 13,3 C 87 % 1018,8 hPa 0,0 mm 0,0 km/h (0 Bft) NO 45 11,3 C 0,0 km/h (0 Bft)
15.06.2015 20:40 13,3 C 13,2 C 87 % 1018,8 hPa 0,0 mm 0,0 km/h (0 Bft) O-SO 112 11,2 C 0,0 km/h (0 Bft)
15.06.2015 20:45 13,3 C 13,2 C 87 % 1018,8 hPa 0,0 mm 0,0 km/h (0 Bft) O-NO 67 11,2 C 0,0 km/h (0 Bft)
15.06.2015 20:50 13,3 C 13,1 C 88 % 1018,8 hPa 0,0 mm 0,0 km/h (0 Bft) NW 315 11,4 C 0,0 km/h (0 Bft)
15.06.2015 20:55 13,2 C 13,1 C 86 % 1019,0 hPa 0,0 mm 0,3 km/h (0 Bft) W-NW 292 10,9 C 5,2 km/h (1 Bft)
15.06.2015 21:00 13,2 C 13,1 C 86 % 1019,0 hPa 0,0 mm 1,0 km/h (0 Bft) W-SW 247 10,9 C 0,0 km/h (0 Bft)
15.06.2015 21:05 13,2 C 13,1 C 86 % 1019,0 hPa 0,0 mm 1,3 km/h (1 Bft) NW 315 10,9 C 0,0 km/h (0 Bft)
15.06.2015 21:10 13,2 C 13,1 C 86 % 1019,0 hPa 0,0 mm 0,3 km/h (0 Bft) NW 315 10,9 C 0,0 km/h (0 Bft)
15.06.2015 21:15 13,2 C 13,1 C 88 % 1019,3 hPa 0,7 mm 0,0 km/h (0 Bft) W-SW 247 11,3 C 0,0 km/h (0 Bft)
15.06.2015 21:20 13,1 C 13,1 C 86 % 1019,3 hPa 0,0 mm 0,0 km/h (0 Bft) W-SW 247 10,8 C 0,0 km/h (0 Bft)
15.06.2015 21:25 13,1 C 13,0 C 88 % 1019,3 hPa 0,0 mm 1,0 km/h (0 Bft) S-SW 202 11,2 C 3,6 km/h (1 Bft)
15.06.2015 21:30 13,1 C 13,0 C 88 % 1019,3 hPa 0,0 mm 1,0 km/h (0 Bft) W-SW 247 11,2 C 0,0 km/h (0 Bft)
15.06.2015 21:35 13,0 C 12,9 C 88 % 1018,8 hPa 0,0 mm 1,0 km/h (0 Bft) S 180 11,1 C 0,0 km/h (0 Bft)
15.06.2015 21:40 13,0 C 12,9 C 88 % 1018,8 hPa 0,0 mm 0,8 km/h (0 Bft) NW 315 11,1 C 0,0 km/h (0 Bft)
15.06.2015 21:45 13,0 C 12,9 C 88 % 1018,8 hPa 0,0 mm 0,0 km/h (0 Bft) NO 45 11,1 C 0,0 km/h (0 Bft)
15.06.2015 21:50 13,0 C 13,0 C 86 % 1018,8 hPa 0,0 mm 1,6 km/h (1 Bft) N-NO 22 10,7 C 0,0 km/h (0 Bft)
15.06.2015 21:55 13,1 C 13,0 C 88 % 1019,8 hPa 0,0 mm 1,6 km/h (1 Bft) W 270 11,2 C 0,0 km/h (0 Bft)
15.06.2015 22:00 13,0 C 13,0 C 86 % 1019,8 hPa 0,0 mm 0,3 km/h (0 Bft) W 270 10,7 C 0,0 km/h (0 Bft)
15.06.2015 22:05 13,0 C 13,0 C 86 % 1019,8 hPa 0,7 mm 0,0 km/h (0 Bft) S-SO 157 10,7 C 0,0 km/h (0 Bft)
15.06.2015 22:10 13,0 C 12,9 C 89 % 1019,8 hPa 0,0 mm 0,0 km/h (0 Bft) O 90 11,2 C 0,0 km/h (0 Bft)
15.06.2015 22:15 13,0 C 12,9 C 89 % 1019,9 hPa 0,0 mm 1,0 km/h (0 Bft) NO 45 11,2 C 2,8 km/h (1 Bft)
15.06.2015 22:20 13,0 C 12,9 C 89 % 1019,9 hPa 0,7 mm 2,8 km/h (1 Bft) O-NO 67 11,2 C 4,7 km/h (1 Bft)
15.06.2015 22:25 13,0 C 12,9 C 89 % 1019,9 hPa 0,0 mm 3,4 km/h (1 Bft) O-SO 112 11,2 C 3,1 km/h (1 Bft)
15.06.2015 22:30 12,9 C 12,8 C 90 % 1019,9 hPa 1,4 mm 2,3 km/h (1 Bft) N-NO 22 11,3 C 0,0 km/h (0 Bft)
15.06.2015 22:35 12,9 C 12,8 C 90 % 1020,1 hPa 0,0 mm 1,3 km/h (1 Bft) N-NO 22 11,3 C 0,0 km/h (0 Bft)
15.06.2015 22:40 12,9 C 12,8 C 90 % 1020,1 hPa 0,7 mm 2,1 km/h (1 Bft) NO 45 11,3 C 5,4 km/h (1 Bft)
15.06.2015 22:45 12,9 C 12,8 C 90 % 1020,1 hPa 0,0 mm 3,1 km/h (1 Bft) O-NO 67 11,3 C 2,8 km/h (1 Bft)
15.06.2015 22:50 12,8 C 12,7 C 90 % 1020,1 hPa 0,0 mm 2,6 km/h (1 Bft) S 180 11,2 C 0,0 km/h (0 Bft)
15.06.2015 22:55 12,7 C 12,6 C 90 % 1020,3 hPa 0,7 mm 1,0 km/h (0 Bft) S-SO 157 11,1 C 0,0 km/h (0 Bft)
15.06.2015 23:00 12,6 C 12,5 C 90 % 1020,3 hPa 0,0 mm 0,0 km/h (0 Bft) SW 225 11,0 C 0,0 km/h (0 Bft)
15.06.2015 23:05 12,5 C 12,4 C 89 % 1020,3 hPa 0,0 mm 0,3 km/h (0 Bft) O-SO 112 10,7 C 3,1 km/h (1 Bft)
15.06.2015 23:10 12,5 C 12,4 C 89 % 1020,3 hPa 0,0 mm 0,3 km/h (0 Bft) SO 135 10,7 C 0,0 km/h (0 Bft)
15.06.2015 23:15 12,4 C 12,3 C 89 % 1020,5 hPa 0,0 mm 0,3 km/h (0 Bft) S-SO 157 10,6 C 0,0 km/h (0 Bft)
15.06.2015 23:20 12,4 C 12,3 C 89 % 1020,5 hPa 0,0 mm 0,0 km/h (0 Bft) S 180 10,6 C 0,0 km/h (0 Bft)
15.06.2015 23:25 12,4 C 12,2 C 89 % 1020,5 hPa 0,0 mm 0,0 km/h (0 Bft) S 180 10,6 C 0,0 km/h (0 Bft)
15.06.2015 23:30 12,4 C 12,2 C 89 % 1020,5 hPa 0,0 mm 0,0 km/h (0 Bft) S 180 10,6 C 0,0 km/h (0 Bft)
15.06.2015 23:35 12,4 C 12,2 C 89 % 1020,5 hPa 0,0 mm 0,0 km/h (0 Bft) S 180 10,6 C 0,0 km/h (0 Bft)
15.06.2015 23:40 12,4 C 12,3 C 90 % 1020,5 hPa 0,0 mm 0,0 km/h (0 Bft) S 180 10,8 C 0,0 km/h (0 Bft)
15.06.2015 23:45 12,4 C 12,3 C 90 % 1020,5 hPa 0,0 mm 0,0 km/h (0 Bft) S 180 10,8 C 0,0 km/h (0 Bft)
15.06.2015 23:50 12,4 C 12,3 C 90 % 1020,5 hPa 0,0 mm 0,0 km/h (0 Bft) S 180 10,8 C 0,0 km/h (0 Bft)
15.06.2015 23:55 12,4 C 12,3 C 87 % 1020,3 hPa 0,0 mm 0,0 km/h (0 Bft) S 180 10,3 C 0,0 km/h (0 Bft)
_ Min-Zeit 23:55 23:35 15:45 00:10 - 23:55 - - 23:55 23:55
Minimum _ 12,4 C 12,2 C 81 % 1013,1 hPa - 0,0 km/h (0 Bft) - - 10,3 C 0,0 km/h (0 Bft)
_ Max-Zeit 15:20 14:40 23:50 23:50 22:30 15:30 - - 14:50 00:10
Maximum _ 16,7 C 17,3 C 90 % 1020,5 hPa 1,4 mm 10,4 km/h
S-SW (2 Bft)
- - 13,6 C 19,9 km/h
W-SW (4 Bft)
Durchschnitt _ 14,4 C 14,4 C 86 % 1016,7 hPa #10,3 mm 2,3 km/h (1 Bft) W - 12,1 C 3,0 km/h (1 Bft)